Location: Newark
(45.8667°N, 9.7333°E)
Time: 22:01:18
(UTC+00:00)

A-11 Canister half - Pass Details

Date: 28 January 2020
Orbit: 1517 x 1683 km, 47.2° (Epoch: 19 February)

Event Time Altitude Azimuth Distance (km) Brightness Sun altitude
Rises 03:47:19 0° 291° (WNW) 4,676 - -31.5°
Reaches altitude 10° 03:50:23 10° 288° (WNW) 3,685 - -31.0°
Exits shadow 03:58:10 56° 243° (WSW) 1,757 8.9 -29.6°
Maximum altitude 03:59:25 61° 211° (SSW) 1,697 8.9 -29.4°
Drops below altitude 10° 04:08:30 10° 134° (SE) 3,706 11.5 -27.8°
Sets 04:11:37 0° 131° (SE) 4,703 12.2 -27.3°
